RH
56 54 51 51 54 57 58 49 41 45 47 39 31 27 27 26 26 26 27 30 33 36 37 37 36 37 38 40 41 41 39 38 37 35 33 32 32 31 32 32 33 34 35 35 35 34 34 34 33 31 30 28 25 23 21 19 18 17 17 17 16 15 15 15 15 14 12 11 11 18 35 51 56 66 75 71 69 68 63 58 56 57 52 47 45 45 49 52
44 44 44 48 54 54 48 42 43 44 38 29 27 29 30 29 31 33 33 36 38 41 45 46 46 45 43 44 43 42 40 38 36 35 34 34 33 34 35 36 37 37 37 37 36 34 32 29 25 21 17 14 12 10 9 8 7 7 7 7 6 6 6 6 6 6 8 12 20 35 59 74 74 81 85 78 74 69 66 63 58 58 55 50 50 50 50 53
30 33 37 41 45 45 42 39 37 32 29 31 33 35 35 33 36 39 39 41 43 46 49 51 52 50 48 45 43 42 40 38 37 36 36 37 38 39 39 39 39 38 36 33 29 24 19 14 10 7 6 5 5 5 4 4 5 5 6 7 7 8 9 10 12 17 28 45 60 74 89 94 88 89 88 82 78 68 66 67 63 62 59 54 54 55 54 55
18 22 25 27 31 32 29 29 29 30 35 40 41 41 41 40 41 41 41 43 45 46 47 48 49 48 47 44 42 41 39 38 37 37 39 39 40 40 40 39 36 32 26 19 13 9 6 4 3 3 3 4 4 5 5 6 7 7 8 9 10 13 16 21 32 48 69 86 95 101 105 101 94 91 85 79 75 67 62 63 63 63 62 60 58 59 59 58
9 12 14 17 20 23 26 31 36 41 44 45 46 46 47 46 45 43 42 43 44 44 44 44 43 42 42 41 39 38 37 38 39 39 40 41 41 40 37 31 24 16 10 6 3 3 3 3 3 4 5 5 6 7 8 8 9 10 11 14 19 25 31 43 63 81 96 101 102 107 106 98 90 84 76 71 71 69 63 60 61 62 63 64 62 61 60 59
11 14 17 21 26 31 37 41 44 45 47 49 50 51 50 49 47 45 43 42 42 41 41 40 39 38 38 38 39 40 40 41 41 41 42 41 37 31 23 14 8 4 3 3 3 4 4 5 6 7 8 9 9 10 11 12 14 17 21 26 35 46 57 73 89 100 104 104 105 108 102 91 84 75 66 64 69 71 67 64 63 64 64 63 62 62 61 60
21 24 28 32 36 40 43 47 49 50 51 53 53 51 50 48 45 43 41 40 39 39 38 38 39 39 40 42 42 42 43 43 43 42 38 30 21 13 7 4 3 3 3 4 5 7 8 9 10 11 13 13 15 17 20 24 27 32 38 45 56 68 82 92 98 102 102 102 102 100 92 84 79 73 65 64 67 69 70 69 68 66 64 63 62 62 62 61
32 34 38 41 43 46 49 53 54 53 52 51 49 46 44 43 41 40 39 39 39 40 41 42 43 43 44 43 44 44 43 41 35 28 19 11 6 3 3 3 4 5 7 8 9 11 12 14 16 19 22 25 30 32 36 40 43 49 56 63 72 81 89 91 90 92 91 88 88 87 82 78 76 74 72 69 70 71 71 69 66 64 62 61 61 61 61 61
39 41 43 45 46 48 50 51 50 48 46 43 41 40 39 39 39 40 41 42 43 44 45 45 45 45 45 44 42 38 32 23 15 8 5 3 3 4 5 7 8 10 12 13 15 20 24 29 34 38 43 48 51 53 56 59 61 66 72 75 78 82 83 81 81 82 81 80 80 79 77 76 75 74 73 70 69 68 67 64 62 61 60 60 61 61 61 62
37 37 38 38 38 39 40 40 40 40 39 38 38 39 40 41 42 43 44 44 45 45 45 45 45 43 40 34 26 19 11 6 3 3 3 4 6 8 11 14 17 21 27 32 38 45 50 56 60 63 68 69 69 73 74 75 77 78 80 80 79 79 79 79 78 77 77 76 74 74 75 73 72 72 70 69 69 66 65 66 65 65 68 69 69 68 67 67
25 26 26 26 27 29 31 32 34 35 37 38 39 40 41 42 43 43 44 45 45 44 43 40 35 28 20 13 7 4 3 3 4 5 7 10 15 19 24 31 38 46 54 61 67 71 74 77 78 82 88 87 86 92 92 91 94 94 93 93 91 90 92 92 90 89 88 86 85 87 88 85 82 80 76 76 80 78 75 74 73 74 75 74 73 72 72 71
16 17 18 19 21 24 27 29 32 34 36 38 39 40 41 42 42 42 42 40 37 32 26 19 13 8 4 3 2 3 4 6 8 12 18 24 31 38 46 56 64 71 79 83 86 88 90 92 93 96 98 97 99 102 100 99 101 101 102 103 100 98 101 104 102 102 101 99 100 102 102 99 94 90 85 82 83 83 81 79 78 77 76 74 71 70 69 69
13 15 16 18 21 23 26 28 31 32 34 35 36 36 35 34 31 28 24 19 15 10 6 4 2 2 3 4 5 8 11 15 21 28 37 45 52 60 68 76 82 86 90 92 93 93 95 96 98 101 100 100 104 102 101 102 101 100 100 102 99 92 91 97 102 103 99 95 94 95 96 95 93 90 85 81 79 78 77 76 75 74 73 73 71 70 69 68
11 12 13 15 16 18 19 20 21 21 21 20 19 18 15 13 10 8 6 3 3 2 2 2 3 5 6 10 16 21 28 35 43 51 58 65 70 75 80 84 88 88 89 90 91 92 95 95 95 99 98 97 99 100 100 100 97 95 93 92 92 88 82 82 87 89 87 85 82 81 80 79 81 82 80 78 76 74 73 72 70 69 68 68 68 67 66 65
6 6 6 7 7 7 7 7 7 6 6 5 4 4 3 2 2 2 2 2 3 4 6 8 10 15 19 27 34 40 48 55 61 66 72 76 77 79 81 81 83 83 83 84 84 84 86 87 88 91 91 88 87 89 92 94 94 92 90 88 87 89 88 84 83 84 84 85 82 81 79 77 75 76 77 76 74 72 71 69 68 66 65 65 64 63 62 61
3 3 3 3 3 3 3 2 2 2 2 2 2 2 2 3 3 4 5 6 9 11 15 21 25 29 36 43 47 53 58 62 67 70 73 74 72 71 70 71 73 74 77 78 80 84 86 90 94 96 96 95 94 95 95 97 99 97 96 95 93 93 93 92 90 89 87 87 86 84 83 81 79 77 75 73 72 70 69 67 66 65 63 62 60 59 57 55
3 3 3 3 3 3 3 3 3 3 3 3 4 4 5 6 8 9 11 13 18 22 27 34 40 44 50 55 57 61 63 64 66 67 67 67 68 70 71 77 82 85 90 92 94 98 99 100 101 102 102 101 101 100 98 96 96 95 93 92 91 90 89 87 86 84 81 79 77 75 73 72 71 69 67 65 64 62 61 60 58 57 55 54 53 52 50 49
3 3 3 4 4 4 4 4 5 5 5 6 6 7 9 11 13 16 19 23 29 35 40 47 51 55 60 61 62 65 66 68 70 73 75 76 81 85 87 92 95 96 98 99 98 99 98 98 98 97 95 93 93 91 88 87 86 85 84 82 80 80 77 75 74 71 69 67 64 62 60 59 57 56 55 54 53 52 51 50 49 48 47 47 46 45 44 43
3 3 4 4 4 5 5 6 6 7 8 9 9 11 14 17 21 27 32 37 42 45 49 53 56 61 65 66 69 73 76 79 81 84 85 86 90 91 91 92 93 93 93 92 92 91 90 90 90 87 83 81 80 78 75 74 73 71 70 67 65 65 64 61 59 57 55 55 54 52 50 49 48 47 46 45 44 43 43 42 42 41 40 40 40 39 39 39
4 4 5 5 6 7 8 10 11 13 15 17 19 20 25 29 32 37 44 48 51 53 56 60 64 70 74 76 78 81 84 85 86 86 85 86 88 87 86 86 85 84 83 81 79 77 75 74 73 71 68 67 65 64 62 61 59 57 56 54 52 52 50 48 47 45 45 44 44 43 43 41 40 40 39 39 38 38 38 37 36 36 36 35 34 34 34 33
6 7 7 8 10 11 14 17 20 25 28 32 34 34 41 46 46 49 54 58 60 63 67 71 75 78 79 81 81 82 83 83 82 82 80 79 78 75 74 72 70 68 65 63 61 59 58 57 56 54 53 52 50 49 48 47 46 44 43 43 42 41 40 40 39 38 37 37 37 38 38 37 36 35 34 34 33 33 33 32 32 31 30 30 29 29 28 28
11 12 14 15 17 20 24 27 30 35 40 46 46 45 52 57 58 63 68 69 70 72 74 76 77 77 77 77 76 76 76 73 72 70 67 65 62 60 58 56 55 53 51 49 47 46 45 44 44 43 41 41 40 39 38 38 38 38 37 37 37 36 36 36 36 35 33 32 32 32 32 31 30 29 28 27 26 26 26 25 25 24 23 23 22 22 21 20
20 22 25 27 30 32 35 39 42 44 49 56 57 57 62 64 67 73 75 75 74 72 72 72 71 69 69 68 66 65 64 62 60 57 56 54 52 50 48 46 45 44 43 42 41 40 40 39 38 38 38 38 38 37 37 35 34 34 33 32 32 31 30 30 30 29 27 26 25 24 25 25 25 23 21 20 20 19 19 18 18 18 18 17 17 18 18 19
33 36 38 40 42 44 48 51 54 56 61 65 66 67 69 70 71 72 70 69 67 65 63 63 62 60 59 59 57 56 55 53 51 48 47 46 44 43 42 41 40 39 39 38 38 38 37 37 36 36 36 36 35 34 33 31 29 28 27 26 25 25 24 23 22 23 24 23 22 21 23 26 28 28 23 20 19 19 19 21 22 23 23 23 24 24 25 26
45 47 47 49 53 56 59 60 60 63 67 68 68 68 68 66 64 62 61 60 58 56 55 55 54 53 53 52 50 49 48 46 45 44 44 42 41 40 38 38 38 38 37 36 35 35 34 32 31 30 29 28 28 28 27 27 26 26 26 26 26 26 27 27 27 28 30 31 31 30 31 34 36 35 31 27 26 27 26 27 27 27 26 25 24 23 22 22
51 52 54 57 60 61 62 61 62 65 65 64 63 63 62 60 58 57 56 55 52 51 51 50 49 49 49 48 47 46 45 43 42 42 41 41 40 39 38 37 36 35 33 31 30 29 28 28 27 27 26 27 28 29 29 31 32 33 34 34 34 34 34 35 34 33 34 34 32 31 30 30 28 26 26 25 24 22 21 20 19 17 16 15 14 13 12 12
54 56 59 61 62 63 61 60 61 62 61 60 59 58 58 57 55 54 53 51 50 49 48 47 46 46 46 45 45 44 43 42 41 40 40 39 38 36 35 32 30 30 29 28 29 29 29 30 31 32 32 34 35 37 38 38 38 37 36 35 33 32 30 28 26 24 22 21 19 18 17 16 14 14 14 13 13 11 10 10 9 8 8 8 8 8 7 7
61 62 63 63 62 61 59 59 59 58 58 57 56 55 55 54 52 50 48 47 45 45 44 43 43 43 42 41 41 40 39 39 39 39 37 34 32 30 30 29 29 31 31 32 33 34 36 37 39 40 40 40 38 37 35 32 30 27 24 22 19 18 17 15 14 13 12 12 12 11 9 9 10 10 9 8 8 8 8 8 7 8 8 8 7 8 8 8
64 63 62 60 59 58 57 56 56 55 55 54 52 52 50 48 47 44 43 42 41 42 42 43 43 42 41 40 40 39 38 36 34 32 30 29 28 27 28 29 30 33 35 37 39 40 41 41 39 37 34 31 27 24 21 19 17 16 14 13 12 12 11 11 12 12 13 15 15 13 11 11 11 11 11 11 11 11 10 10 10 11 10 10 10 10 10 10
61 60 58 57 56 55 54 53 53 52 51 49 47 45 43 42 41 40 40 39 39 39 38 39 39 38 38 37 35 33 30 28 26 26 25 25 26 27 29 31 33 35 37 38 39 37 34 31 27 24 21 19 18 16 15 15 16 16 15 14 15 16 16 16 17 16 18 21 21 19 16 15 15 15 14 14 15 15 14 13 12 12 11 11 10 10 10 10
57 56 55 54 53 52 51 49 48 47 45 43 41 40 40 40 40 39 39 38 37 36 34 33 33 31 30 28 27 26 25 25 26 26 28 30 33 35 37 37 37 36 35 33 31 27 24 21 19 17 16 16 17 18 18 18 19 19 19 18 18 19 19 19 20 20 21 24 26 26 23 20 20 19 17 18 19 18 17 15 13 12 11 11 11 11 11 11
54 54 52 51 50 49 48 46 44 42 39 39 40 41 41 40 40 39 37 35 33 32 30 29 28 26 25 25 25 26 28 30 33 36 40 42 43 42 39 36 32 28 26 24 23 23 21 20 20 20 20 21 22 24 25 25 25 24 23 22 21 19 19 19 20 21 22 25 29 30 25 22 23 21 20 23 24 22 20 17 15 13 11 11 11 11 11 11
52 52 50 49 48 46 45 43 41 40 39 40 40 39 39 38 37 34 31 30 28 27 26 25 25 25 25 27 29 33 37 41 44 45 44 42 38 33 28 25 22 20 20 20 22 25 26 26 27 27 27 28 27 26 27 27 28 28 27 25 24 22 20 19 19 19 20 22 28 31 26 23 23 22 22 25 25 24 21 18 17 15 14 12 11 11 10 10
50 49 47 46 44 43 43 41 40 41 41 39 37 36 36 34 32 28 27 27 27 26 26 26 28 29 32 37 41 45 46 46 43 39 34 30 26 23 21 20 21 22 23 24 25 28 30 29 29 29 29 28 28 26 25 26 26 26 26 24 24 23 22 20 19 18 18 18 23 29 28 26 24 22 23 25 24 24 23 21 19 16 14 14 12 11 10 9
48 46 44 44 43 42 41 40 40 39 37 36 35 33 31 28 27 27 28 28 27 28 29 32 36 41 45 49 49 47 42 37 33 28 25 22 21 21 22 23 26 27 27 28 28 29 30 30 28 28 27 26 26 25 23 23 23 23 22 22 21 21 20 19 19 19 18 16 18 22 25 26 26 23 24 25 24 24 23 22 20 17 15 15 13 12 10 8
47 46 45 44 42 41 40 39 37 35 35 34 32 30 29 29 29 29 28 28 30 33 38 44 49 51 50 47 42 36 31 27 24 22 22 22 22 24 26 28 29 29 29 28 28 27 28 28 27 26 27 26 24 24 22 21 20 20 20 21 20 20 20 19 18 18 17 15 15 18 19 21 22 21 22 23 22 22 22 21 20 18 17 16 15 13 11 10
48 48 47 45 43 42 40 38 37 35 33 30 29 31 31 31 30 29 32 36 41 47 51 53 52 47 41 36 31 28 25 23 23 24 25 26 28 29 29 29 29 28 27 26 25 24 24 27 28 28 29 28 24 23 24 23 22 23 25 24 22 20 21 20 18 17 15 13 13 15 15 15 17 18 18 20 21 21 21 21 21 19 18 16 15 14 13 12
52 49 47 45 44 41 39 37 34 30 28 31 34 34 31 31 33 38 45 51 56 57 54 48 42 37 32 28 26 25 24 26 27 28 30 30 30 29 28 27 25 24 23 22 22 21 21 24 28 30 31 31 27 25 26 29 30 30 29 27 24 22 21 20 18 17 15 13 12 13 14 14 15 15 14 15 15 16 17 17 18 18 16 16 15 14 13 12
49 47 46 43 40 37 35 32 30 31 35 38 35 32 33 39 46 54 58 59 56 50 44 38 33 30 27 26 26 26 27 29 30 31 30 29 28 26 25 24 22 21 21 20 20 21 20 22 27 34 36 36 31 27 27 30 31 30 29 29 26 25 23 22 22 23 20 18 16 14 13 13 13 12 11 10 10 10 10 11 12 13 12 13 12 12 12 11
46 45 42 38 36 34 32 31 33 37 37 34 34 39 48 55 61 62 58 52 46 39 35 31 28 27 27 27 28 29 30 30 30 29 28 26 25 23 23 22 22 22 21 21 22 23 24 23 26 35 41 40 34 28 28 31 32 31 29 27 25 25 27 25 27 30 27 23 20 15 11 12 11 10 9 9 8 8 8 7 8 8 8 9 9 9 8 8
44 41 38 35 34 33 33 33 33 33 34 39 49 58 63 64 61 55 48 42 37 32 30 28 27 28 29 30 31 30 30 29 28 27 25 24 23 21 21 21 21 22 22 24 25 27 28 26 27 34 40 39 33 31 37 41 40 37 33 31 31 31 31 28 25 24 21 18 15 13 10 10 11 10 9 8 8 7 7 6 6 5 6 5 5 6 5 5
40 37 35 34 34 34 33 31 33 40 50 60 65 66 63 57 51 45 39 35 31 29 28 28 29 31 31 32 31 29 28 27 26 25 23 22 21 21 21 21 22 24 25 27 29 32 33 29 30 36 41 41 37 38 45 47 43 39 36 33 30 26 22 18 15 13 13 13 14 12 11 10 10 9 8 7 7 7 6 6 5 4 4 4 4 4 4 4
36 35 34 35 34 33 34 39 50 62 68 68 65 59 54 47 42 37 33 30 29 28 29 31 32 32 31 30 28 27 27 25 25 23 23 23 22 23 24 24 27 30 33 34 35 38 38 33 31 34 38 40 41 45 49 48 44 38 33 27 23 21 19 19 20 20 19 18 17 14 10 9 9 9 8 7 7 7 7 6 6 5 4 4 4 4 3 3
35 35 34 33 33 38 49 61 70 72 67 62 56 50 45 40 36 32 29 28 29 30 32 32 32 31 28 28 27 26 25 24 24 24 24 25 26 27 29 32 37 42 44 42 42 43 41 36 33 33 34 31 29 33 36 34 34 32 31 30 29 30 30 29 28 26 22 20 17 14 10 8 9 8 8 8 7 7 7 7 6 5 4 4 3 3 3 3
36 34 33 37 45 58 70 74 71 65 59 54 48 44 39 35 32 29 28 29 30 32 33 31 30 28 27 27 27 26 25 24 25 27 29 31 33 37 40 44 48 51 50 47 46 46 43 39 36 38 44 39 30 29 29 26 26 29 32 36 36 36 34 30 27 24 20 17 14 12 9 7 8 8 7 7 6 6 6 5 5 4 3 3 2 2 2 2
34 36 47 60 70 76 75 69 63 57 52 47 43 39 35 31 29 28 29 31 32 32 31 29 28 28 28 29 29 29 29 28 30 33 36 39 42 46 49 50 51 52 52 49 48 45 43 41 38 40 51 51 41 39 40 36 35 35 36 36 35 35 36 36 33 28 21 15 10 10 9 7 7 6 5 5 5 5 4 3 3 2 2 2 2 2 2 1
44 57 74 83 81 74 67 61 55 50 46 42 38 34 30 28 28 30 31 33 31 29 28 28 29 30 31 32 33 35 37 38 40 42 44 47 53 56 54 52 52 52 50 48 46 43 41 41 39 39 49 50 41 40 42 41 40 39 36 34 34 36 40 39 34 26 19 13 8 8 9 7 6 5 4 5 4 4 3 2 2 1 1 2 2 2 2 1
66 79 85 82 73 66 60 54 49 45 41 38 34 30 28 28 30 32 32 31 29 28 29 30 31 33 35 36 38 40 43 45 47 49 51 53 57 58 55 52 51 50 48 45 43 41 41 41 38 38 45 45 37 38 41 40 40 39 35 34 36 38 39 34 28 24 20 13 9 8 8 7 6 5 4 4 3 3 2 1 1 1 2 2 2 2 2 2
81 83 79 72 64 58 53 48 44 41 38 34 30 28 29 30 32 32 30 28 28 29 30 33 36 37 38 40 43 45 45 45 47 50 53 54 54 53 50 47 46 46 44 43 42 40 40 41 38 35 41 43 38 38 39 37 37 37 35 35 35 35 35 33 29 25 19 12 9 9 8 6 6 4 4 4 3 2 2 1 1 1 2 2 1 2 2 2
83 78 71 63 57 51 47 44 42 39 35 30 28 29 31 32 31 30 29 29 30 32 35 38 39 40 43 46 51 53 52 51 51 52 53 54 52 48 45 42 42 43 44 43 43 42 40 42 40 35 37 41 39 38 39 35 33 33 32 32 32 29 31 31 26 19 13 8 8 8 6 5 5 4 3 3 3 2 2 1 1 2 2 2 1 2 2 1
76 70 63 56 51 47 45 44 41 37 31 28 30 32 33 31 30 29 30 32 33 37 41 42 42 46 53 58 64 68 68 65 62 58 57 56 53 48 44 43 42 43 44 43 43 43 42 44 43 37 35 37 36 36 37 33 30 30 30 29 27 25 24 23 18 14 10 7 5 5 5 4 3 3 3 2 2 2 2 1 1 2 2 2 2 2 2 2
68 62 55 50 48 46 46 44 39 33 30 31 33 34 31 30 31 32 33 35 38 43 45 46 51 58 67 75 83 85 81 76 71 64 61 61 60 55 51 50 49 47 45 43 42 44 44 45 46 41 36 36 35 34 36 36 33 31 31 28 24 20 17 16 15 11 8 6 5 4 4 3 3 2 2 2 2 2 1 1 1 2 2 2 2 2 2 2
Wind_Speed
46 46 45 45 45 45 46 47 46 45 46 47 46 46 46 46 46 46 45 45 45 45 46 48 48 48 48 48 49 50 50 51 51 52 53 54 55 56 58 59 60 61 63 64 66 67 69 69 70 70 70 70 70 69 69 67 66 65 63 62 62 61 61 62 61 62 61 59 57 55 53 52 51 49 49 52 51 51 52 52 50 52 56 56 54 53 53 55
47 47 46 46 46 46 47 47 46 46 46 46 46 46 46 46 45 45 45 45 45 45 46 47 48 49 49 49 50 51 52 52 53 54 55 56 57 59 60 61 63 64 65 66 68 69 70 70 70 69 67 66 64 63 62 60 58 56 55 54 54 53 53 52 51 50 50 50 48 47 46 46 46 45 48 50 50 50 50 50 50 51 54 53 51 52 52 53
46 46 46 46 46 47 47 46 46 46 45 45 45 44 45 44 44 44 45 45 45 46 47 47 48 49 50 51 51 52 53 53 54 55 56 57 59 61 62 63 65 66 67 68 68 68 67 66 64 61 59 57 55 55 54 52 50 49 48 48 47 46 45 43 40 40 40 41 41 40 41 43 44 45 47 48 49 49 48 48 49 50 52 51 49 50 52 52
44 44 44 44 45 45 45 44 44 44 43 43 43 43 43 43 43 44 45 45 46 47 48 49 49 50 51 52 52 53 53 54 55 57 58 59 61 63 64 65 66 67 67 66 64 62 60 57 54 52 50 48 47 47 46 45 43 43 41 40 39 38 37 34 32 33 33 35 36 38 40 42 43 45 46 46 47 48 47 47 47 48 50 50 48 49 51 53
40 41 41 41 41 42 41 41 41 41 41 42 42 42 43 43 44 45 45 46 47 48 49 50 51 51 52 53 53 54 55 56 57 59 60 61 63 64 65 66 65 63 61 58 55 52 50 48 45 43 42 41 39 39 39 37 36 35 34 32 31 31 29 27 27 28 30 33 35 38 41 42 43 44 45 44 44 46 46 46 46 46 47 49 49 49 51 53
37 37 38 38 38 38 38 39 39 40 40 41 42 42 43 44 45 45 46 47 48 49 50 51 51 52 52 53 54 56 57 58 60 61 62 63 63 63 63 61 58 55 51 48 45 43 40 38 36 34 33 32 31 30 29 29 28 27 26 26 25 25 24 24 25 27 29 32 35 39 41 41 42 44 43 42 42 44 46 46 46 46 46 48 50 51 52 54
32 33 34 34 35 35 36 38 39 40 41 42 43 43 44 45 46 46 47 48 49 49 50 51 52 53 53 55 56 58 59 60 61 62 62 62 60 57 54 51 47 44 41 38 35 33 31 28 27 25 24 23 22 21 21 21 21 21 21 21 21 21 21 23 25 27 30 32 35 39 41 41 41 42 42 40 40 41 44 46 47 47 48 49 51 53 54 55
29 30 31 32 34 35 37 38 40 41 42 43 44 44 45 45 46 47 47 48 49 50 51 52 53 54 55 56 58 59 60 61 61 60 58 55 51 46 42 39 36 33 30 28 25 23 20 19 17 16 15 15 15 15 15 16 17 17 17 18 18 20 21 24 25 28 30 31 34 38 39 40 39 39 41 40 39 41 44 47 48 49 50 51 53 55 56 58
29 30 32 33 35 36 38 40 41 42 43 44 44 44 45 46 46 47 48 49 50 51 52 53 55 56 57 58 59 59 59 57 54 51 47 42 38 34 30 27 24 21 19 17 15 12 11 10 10 9 9 9 9 10 11 12 13 13 14 16 17 18 21 23 24 27 29 30 32 37 39 39 37 38 41 42 41 43 46 48 50 51 52 54 56 58 59 61
31 32 34 35 36 38 39 40 41 42 43 44 44 45 46 47 48 48 49 50 51 52 54 55 56 57 58 57 56 54 50 46 42 38 33 29 25 21 18 15 13 11 9 8 7 7 7 7 7 6 7 7 8 9 10 11 12 13 15 17 17 18 21 24 25 27 29 31 32 38 42 41 38 38 40 43 44 45 48 51 53 53 55 58 60 61 63 64
32 33 35 36 37 38 40 41 42 43 44 45 46 47 47 48 49 50 51 52 53 54 55 55 55 54 52 49 45 41 37 32 28 25 21 17 13 10 8 6 5 5 6 7 7 7 7 7 7 7 8 9 9 10 12 13 14 16 17 20 20 20 24 27 28 30 32 33 34 38 45 45 42 41 41 44 48 49 51 53 56 57 58 61 63 65 66 67
32 34 35 36 38 39 41 42 43 44 45 46 47 48 49 50 51 51 52 52 52 52 51 49 47 43 39 35 31 27 24 20 17 13 10 7 4 3 2 4 5 6 6 6 6 6 6 7 7 8 9 10 11 13 15 16 18 20 22 24 25 24 26 30 32 34 35 37 37 39 46 50 49 46 45 46 50 53 55 56 58 61 62 64 66 68 70 71
32 34 36 37 39 40 42 43 44 45 46 47 48 48 49 49 49 48 47 46 44 42 39 35 32 28 25 21 18 15 13 10 7 4 2 0 2 3 4 4 4 4 4 5 6 7 7 8 9 11 12 13 15 16 18 21 22 24 26 28 31 29 29 31 35 38 39 41 41 41 45 51 54 54 51 50 53 56 58 60 61 63 66 68 69 71 73 74
32 34 36 37 39 40 41 42 43 43 43 43 43 43 42 41 39 37 35 33 30 27 23 21 18 15 12 10 7 5 4 2 1 2 2 2 2 3 3 3 3 4 5 6 8 9 10 11 13 14 15 16 18 20 22 24 26 27 29 31 34 36 35 34 37 41 44 45 45 45 47 50 54 59 59 58 58 60 62 64 65 67 69 71 73 75 76 78
30 31 33 33 34 35 35 35 35 35 34 33 32 31 30 28 26 24 21 18 16 13 11 9 8 6 5 4 4 4 4 4 4 3 2 2 1 2 3 4 5 7 8 9 11 12 14 15 17 18 20 21 22 24 26 28 30 32 34 35 37 40 42 41 41 44 48 50 50 50 52 53 55 59 62 64 65 66 68 70 71 72 73 75 77 79 80 82
24 24 25 25 25 26 26 25 25 24 23 22 22 20 19 17 15 12 11 9 7 6 6 5 5 5 6 6 5 5 4 3 2 1 0 2 3 5 6 8 9 11 12 14 15 16 18 20 21 23 24 26 26 28 30 32 34 36 37 40 42 43 46 48 48 49 51 54 56 56 56 57 59 61 64 67 68 70 72 74 76 78 79 79 81 82 84 86
16 16 16 16 16 17 17 17 17 16 16 15 13 12 10 9 7 7 7 7 8 8 8 8 7 7 6 5 5 4 2 1 1 3 4 6 8 10 11 12 14 15 16 18 19 20 22 23 24 26 28 29 31 32 34 36 38 40 42 44 47 48 49 51 54 56 57 58 60 61 62 61 63 65 67 70 72 73 75 78 80 82 84 85 86 86 88 90
11 11 11 11 11 11 11 10 10 9 9 9 9 9 9 10 10 10 10 10 10 10 10 9 8 7 6 4 3 2 2 4 6 7 9 11 12 13 14 15 17 18 19 21 22 24 26 27 29 31 33 34 35 37 39 41 43 45 47 48 51 54 55 55 56 59 62 64 65 66 67 67 67 68 71 73 76 77 79 81 83 85 87 88 89 90 91 93
10 11 12 13 13 13 13 13 13 13 12 12 13 13 14 14 13 13 13 12 11 10 9 8 7 6 4 2 3 4 6 7 9 10 12 13 15 16 17 19 20 21 23 24 26 28 30 32 34 36 38 39 40 42 44 46 47 49 51 53 54 57 61 62 61 62 63 66 69 71 73 73 72 73 75 78 80 82 83 85 87 88 90 91 93 94 95 95
15 16 17 18 19 20 21 21 20 20 19 18 17 17 17 16 15 15 14 12 10 9 8 7 6 6 4 5 6 7 8 10 12 13 15 17 18 19 21 23 24 25 27 29 31 33 34 36 38 40 42 44 46 47 49 51 52 53 55 57 58 59 64 67 67 67 67 68 71 74 77 78 78 79 81 82 84 86 88 90 92 93 94 95 96 97 98 99
21 22 22 23 23 24 25 25 25 24 23 22 20 19 19 17 15 14 13 11 10 8 8 7 6 6 6 7 8 10 11 13 15 17 18 20 22 23 24 26 28 30 32 33 35 37 39 41 43 45 47 49 51 52 54 56 57 59 60 61 63 64 66 71 73 73 72 72 74 76 79 83 85 86 87 88 88 90 92 93 95 97 98 99 100 101 101 102
26 26 26 26 26 26 26 26 25 24 24 22 19 18 19 16 15 14 12 10 9 8 7 7 7 8 9 10 12 13 14 16 18 20 22 24 25 27 29 31 33 35 37 39 40 42 44 46 48 50 52 54 57 58 59 61 62 64 65 66 68 70 70 73 77 79 78 77 77 79 81 85 89 91 93 92 92 93 94 95 96 98 99 100 101 102 102 103
30 29 29 28 28 27 26 25 24 23 22 21 18 17 17 15 14 12 10 8 7 7 6 7 8 9 11 13 15 17 19 21 23 25 26 28 30 31 33 35 38 40 42 44 46 47 49 51 53 55 57 59 61 63 64 66 67 68 69 70 71 73 74 74 76 80 82 82 81 82 83 86 91 95 97 97 96 95 95 95 96 98 99 100 101 102 102 102
31 30 29 28 27 26 25 24 23 22 21 19 16 15 14 12 10 9 6 5 5 7 8 10 12 13 15 17 18 20 23 26 27 29 31 33 35 36 38 40 42 44 47 48 50 52 54 56 58 59 61 63 65 66 68 70 71 72 73 74 75 76 78 78 78 79 82 84 85 85 85 86 91 97 100 100 99 97 96 97 98 99 100 101 102 102 103 104
30 28 27 26 25 24 23 21 20 19 18 15 13 11 9 7 6 5 6 6 7 10 12 14 16 17 20 22 23 25 27 29 32 34 36 38 40 41 43 45 46 48 50 52 54 56 58 60 61 63 64 66 68 69 70 72 73 75 76 78 79 80 81 82 82 82 83 85 87 89 88 87 91 98 101 100 100 99 98 99 101 102 103 103 104 104 105 105
27 26 24 24 22 21 19 17 16 15 12 10 8 6 5 5 6 7 9 11 12 14 16 18 20 22 24 27 29 31 32 34 35 37 40 42 44 46 48 49 51 53 54 56 58 60 61 63 65 67 68 69 70 71 72 74 75 76 78 80 81 82 83 84 85 86 85 87 89 91 92 90 91 98 101 98 98 99 99 100 102 102 104 104 104 104 105 105
24 22 21 20 18 16 14 13 11 10 8 6 5 6 6 8 10 11 12 15 16 18 20 22 24 26 28 30 32 34 36 38 40 41 43 45 47 49 51 53 55 56 59 60 61 63 64 65 67 68 70 70 71 72 74 75 77 78 80 81 82 83 84 85 86 87 86 87 89 91 93 92 92 97 99 95 94 95 96 98 100 101 102 103 103 103 103 103
20 19 17 15 13 11 10 8 7 5 5 5 6 8 10 11 13 15 16 19 20 22 24 26 28 29 31 33 35 37 39 41 43 45 47 48 50 52 53 56 57 59 61 62 63 64 65 67 68 70 72 73 75 75 77 78 79 80 81 82 83 83 84 85 85 85 86 87 89 91 92 93 93 96 98 94 93 94 95 96 99 101 102 101 102 102 102 102
16 14 12 10 9 7 5 5 5 6 7 8 10 12 13 15 16 19 20 22 24 26 28 30 32 34 36 37 39 41 43 44 46 48 49 51 53 54 55 56 57 58 60 62 64 66 67 69 71 73 74 76 77 78 78 79 79 80 81 81 82 83 83 84 84 85 85 87 90 91 92 94 94 95 96 95 94 94 94 95 96 99 100 100 100 100 100 100
12 10 8 6 5 4 5 6 7 9 11 12 14 15 17 19 21 22 24 26 28 30 32 33 35 37 39 41 42 44 46 47 49 50 51 53 54 55 56 57 59 60 62 65 67 69 70 71 72 73 73 74 75 77 77 78 79 80 81 81 81 83 83 83 85 85 85 86 89 91 92 94 95 94 94 94 93 93 94 94 95 96 96 97 97 96 96 97
7 6 5 4 5 7 8 10 12 13 14 16 17 19 21 23 25 27 29 30 32 33 35 36 38 40 41 43 45 46 48 50 51 53 54 55 57 59 60 61 63 65 67 68 70 71 71 71 72 72 72 72 73 76 78 80 81 82 83 83 82 82 82 81 83 84 83 84 86 87 90 93 94 94 93 94 94 94 96 97 96 96 95 96 96 96 96 96
6 7 7 9 10 11 13 15 16 17 18 20 22 24 25 27 29 30 32 33 35 36 37 39 40 42 44 45 47 48 49 51 52 54 55 57 59 60 61 61 61 62 62 63 66 69 71 72 72 73 73 73 72 73 75 78 80 82 83 84 84 84 82 79 80 80 80 80 81 84 87 90 93 93 92 92 94 94 96 98 99 99 98 98 98 98 97 97
9 10 11 12 14 15 17 18 19 21 23 24 25 27 28 30 31 32 34 35 37 39 40 42 43 44 45 46 48 49 50 52 53 55 57 58 59 59 59 59 59 59 60 60 62 65 69 70 71 71 72 73 72 71 70 71 74 77 80 82 84 85 84 81 79 79 77 75 75 79 83 86 90 92 90 90 92 93 96 97 99 100 101 102 101 100 99 98
12 13 14 15 17 18 19 21 23 24 25 27 28 30 31 32 33 34 36 38 40 41 43 44 45 46 47 48 49 51 52 54 56 57 57 57 57 58 58 58 59 59 59 60 60 61 64 67 67 67 68 69 70 70 69 69 70 73 76 79 80 83 84 83 82 82 81 77 72 73 77 80 85 88 88 88 90 93 95 96 98 99 102 104 104 103 102 100
14 15 17 18 19 21 22 23 24 25 27 29 30 32 33 34 36 38 39 40 41 42 43 44 45 47 48 50 52 53 55 55 56 55 55 55 55 55 56 56 57 57 58 58 58 56 57 62 64 64 66 67 67 68 67 67 69 70 73 75 76 78 81 82 82 82 85 83 76 73 75 78 81 83 83 86 88 91 93 95 97 100 101 104 105 105 105 103
16 18 19 20 22 23 25 26 27 29 30 31 33 34 36 37 39 40 41 42 42 43 44 45 47 49 51 52 53 54 54 53 53 54 54 53 54 54 54 54 54 55 55 54 53 51 50 56 62 63 66 67 65 66 67 67 68 69 70 72 72 74 77 80 81 81 85 87 82 78 79 80 81 81 82 84 87 89 91 94 97 99 101 104 105 106 107 106
19 20 21 23 24 26 27 29 30 31 32 33 35 37 38 39 40 41 42 43 44 45 47 49 51 52 53 53 53 52 52 52 52 52 53 52 53 52 51 51 50 51 52 51 51 50 48 52 60 62 65 68 65 64 66 68 69 69 70 71 72 72 74 78 82 84 87 88 85 82 82 82 83 83 84 85 86 87 89 91 94 97 100 102 104 106 107 107
21 22 23 24 26 27 29 30 31 33 34 35 36 38 39 40 41 42 43 45 47 48 50 52 52 52 52 51 50 50 50 50 50 50 50 50 49 49 49 49 49 50 52 52 53 53 50 49 57 62 65 67 67 64 63 66 69 70 71 73 74 75 76 77 81 86 91 92 91 89 88 86 86 88 89 89 89 89 88 90 92 94 96 99 101 103 104 105
22 23 24 26 27 29 31 32 34 35 35 35 37 38 40 41 42 44 45 47 49 51 52 52 51 51 50 49 48 48 48 48 47 47 46 47 47 48 49 50 52 52 54 54 54 55 53 50 54 62 66 68 68 65 63 65 67 69 71 73 75 78 79 79 79 84 91 93 95 97 96 92 92 94 96 96 96 95 93 92 92 93 93 94 96 97 99 99
23 25 26 28 30 31 33 34 34 34 34 36 38 39 40 42 44 46 48 49 51 51 51 50 50 49 48 48 47 46 46 46 46 46 46 47 48 49 50 51 54 55 56 57 57 57 58 54 54 61 67 68 68 67 67 69 70 71 72 73 75 77 80 80 78 80 86 91 95 101 100 96 96 98 99 99 99 99 99 98 96 96 95 94 94 94 94 93
25 27 29 30 31 32 33 34 34 34 36 37 38 40 42 44 46 48 50 51 51 51 49 48 48 47 46 46 46 45 45 45 46 47 48 48 49 50 52 53 55 57 58 60 61 62 62 60 58 62 66 68 67 67 70 72 73 74 75 74 76 78 82 84 83 82 84 88 93 100 101 98 97 98 99 100 100 100 100 101 99 97 96 94 93 92 90 88
27 28 30 31 32 33 34 34 35 36 37 38 40 42 44 46 48 50 51 51 50 48 47 46 46 45 45 45 45 46 46 47 48 50 51 52 52 53 55 56 58 60 62 63 65 67 67 65 62 64 66 67 68 68 71 72 72 73 75 75 77 79 83 87 89 90 89 89 92 97 99 99 99 101 102 101 101 101 101 102 101 98 97 96 94 92 90 88
28 29 30 31 32 33 34 35 35 36 38 40 42 44 46 48 50 50 49 48 47 46 45 45 44 44 44 45 46 47 48 49 51 53 54 56 57 58 59 61 63 65 66 67 68 70 71 69 66 65 64 63 63 63 65 68 69 71 72 73 75 77 80 84 88 92 93 93 95 99 101 100 101 103 104 104 104 103 103 104 104 101 99 98 94 90 87 85
28 29 30 31 32 33 34 34 36 38 40 43 45 46 48 49 49 49 47 46 45 44 44 44 44 44 45 46 47 48 49 51 53 56 58 60 62 63 65 66 68 70 70 70 71 72 73 73 72 70 69 66 62 59 59 59 62 67 71 73 75 77 79 82 85 89 92 93 96 100 101 100 100 103 103 104 103 102 101 101 101 99 96 92 87 83 80 79
28 30 30 31 31 32 33 35 38 40 43 45 47 48 49 49 48 46 45 44 43 43 43 43 44 45 46 47 49 51 52 54 57 60 62 64 66 67 69 70 71 72 72 72 72 72 73 74 74 74 77 78 75 72 71 68 67 69 73 76 79 81 83 85 87 91 93 94 96 99 102 100 99 101 100 99 98 97 95 94 93 91 87 81 78 75 74 72
29 29 30 30 31 33 35 38 40 43 45 47 48 48 48 47 45 44 43 43 42 42 43 44 45 47 49 51 54 57 58 59 61 64 66 68 69 70 71 72 73 73 74 73 73 72 71 72 71 72 77 81 80 79 80 79 77 77 78 80 82 85 88 90 93 95 98 98 97 100 103 102 100 99 96 95 94 92 90 87 84 80 74 71 71 71 70 67
27 27 28 30 32 35 38 40 42 44 46 47 47 46 45 44 43 42 41 41 42 43 44 46 48 50 53 55 58 60 63 64 66 67 69 70 72 74 74 74 75 75 75 74 73 72 71 70 68 68 74 79 78 78 80 80 81 81 82 83 85 88 91 93 96 99 101 103 102 102 103 104 101 98 95 94 93 89 86 82 76 70 68 68 68 67 65 64
25 26 29 32 35 37 40 42 44 46 46 46 45 44 42 41 40 40 40 41 42 45 47 49 51 53 55 57 59 60 63 66 68 70 72 72 73 75 76 76 77 77 77 76 76 75 73 72 69 67 73 78 78 79 82 81 82 84 84 86 87 89 92 94 98 101 104 106 106 104 103 103 103 98 93 92 92 89 84 79 72 67 66 65 63 61 60 59
25 28 31 34 37 39 41 43 44 45 45 43 42 40 39 39 39 40 41 43 45 48 50 51 53 54 56 58 60 62 64 65 68 71 73 74 74 75 76 77 79 80 80 80 80 78 76 76 73 68 72 77 78 80 83 83 84 86 87 88 89 91 93 96 99 102 104 105 105 103 102 101 100 97 92 90 91 89 84 79 71 66 64 61 58 56 55 54
28 30 33 36 38 40 42 43 43 43 42 40 38 38 38 38 39 41 43 45 48 50 52 53 54 55 58 61 64 67 69 70 71 73 75 76 77 77 78 79 81 83 84 85 85 83 80 80 78 73 73 77 78 79 82 83 83 86 87 89 90 91 92 93 96 100 104 103 101 100 98 95 94 94 91 88 87 84 81 76 69 63 61 59 56 54 52 52
29 32 34 36 38 40 41 42 41 40 39 37 36 37 38 39 41 43 46 48 50 52 53 54 55 58 62 65 69 72 74 76 77 79 80 81 81 82 83 84 85 85 86 87 87 87 86 85 84 80 77 78 79 79 81 83 83 85 87 89 90 90 90 90 92 97 102 102 99 96 95 93 92 91 88 84 82 80 77 73 65 60 59 58 54 52 50 49
31 33 35 37 39 40 41 40 39 38 36 36 36 37 39 41 43 45 47 50 51 52 53 55 58 62 66 69 72 74 77 78 80 82 84 85 87 88 89 90 90 89 89 89 89 90 90 90 90 87 83 82 82 82 83 85 85 86 88 90 91 91 90 88 89 93 97 98 97 94 92 90 87 84 81 77 75 74 72 67 60 56 55 55 52 50 48 47
Wind_Direction
241 243 245 246 248 249 251 253 255 257 259 261 263 265 266 266 267 269 269 270 271 272 274 275 276 276 276 276 277 277 277 278 278 278 279 280 280 281 282 282 283 283 284 284 284 284 283 283 282 282 281 281 280 279 278 277 276 276 275 273 272 271 270 268 268 269 269 268 266 265 264 263 263 263 263 264 265 266 267 268 268 268 267 268 270 271 270 270
241 243 244 245 247 249 251 254 256 258 260 262 263 265 265 266 268 269 271 272 274 274 275 276 277 277 278 278 278 279 279 280 280 281 282 283 284 284 285 285 286 286 286 285 285 284 284 283 283 282 281 280 279 278 278 277 277 275 274 273 272 271 270 269 268 266 265 264 263 262 261 261 261 261 262 264 265 266 268 269 269 269 269 270 271 271 270 270
241 242 244 245 247 250 252 254 256 258 260 262 264 264 266 268 269 271 273 275 276 276 276 277 277 278 278 279 279 280 281 282 283 284 284 285 286 287 287 287 287 286 286 285 285 285 284 284 283 282 281 280 279 278 278 277 276 275 273 273 272 271 270 269 266 262 261 261 260 260 259 260 260 261 262 264 266 267 268 270 270 270 271 271 271 271 270 270
241 243 245 247 248 250 252 255 257 259 261 262 264 266 268 270 272 274 275 276 277 277 277 277 278 278 279 280 281 282 283 284 284 285 286 287 287 287 287 287 287 287 287 287 286 286 285 284 283 282 281 280 278 277 277 277 276 274 273 272 270 269 267 265 261 259 258 259 261 261 260 261 261 262 263 265 268 269 269 269 269 269 270 271 270 269 269 269
243 245 247 249 250 252 254 256 257 259 261 263 266 268 271 273 274 275 276 276 277 277 278 279 279 280 281 282 283 284 285 285 286 287 287 287 287 288 288 288 288 288 288 288 288 287 286 285 283 282 280 279 278 277 277 276 274 273 271 269 266 264 263 260 258 259 260 262 264 264 263 263 264 265 265 267 269 271 271 269 268 266 266 267 268 268 268 269
244 246 248 250 252 254 256 258 260 262 265 267 269 271 273 274 275 276 276 276 277 278 279 280 281 282 283 284 285 286 287 287 288 288 288 288 288 289 289 289 289 289 289 289 288 287 286 285 283 282 280 279 278 277 275 274 272 270 267 263 261 260 261 261 262 263 265 266 267 268 267 267 268 268 268 268 269 269 270 269 268 266 264 264 265 266 267 268
246 249 251 254 256 259 261 263 265 267 269 270 271 273 273 274 275 276 276 277 278 279 280 281 282 283 284 285 286 286 287 287 288 288 288 289 289 289 289 289 289 290 290 289 289 288 287 286 285 283 281 280 278 277 274 271 268 266 264 263 263 265 268 268 268 268 267 268 268 269 269 269 270 271 271 270 269 268 268 268 267 266 266 266 266 267 268 269
252 255 257 259 262 264 266 267 268 270 271 271 272 273 274 275 275 276 277 278 279 280 281 282 283 284 284 285 285 286 286 287 287 288 288 288 289 288 289 289 290 290 291 291 291 291 291 291 290 289 288 287 283 279 275 273 271 272 273 273 274 275 275 273 272 271 270 269 269 270 270 270 271 272 274 273 272 271 270 270 269 268 268 269 269 270 271 271
257 259 261 263 264 266 266 267 268 269 270 271 272 273 274 275 276 277 277 278 279 280 281 281 282 283 283 284 284 285 286 287 287 287 287 287 287 288 289 290 291 292 294 296 298 303 307 309 310 310 307 302 296 292 291 289 289 290 287 285 283 282 279 277 276 274 273 273 272 273 272 272 272 272 273 274 272 272 272 271 271 271 271 272 272 271 271 271
259 260 261 262 263 264 265 266 267 268 269 270 272 273 274 275 275 276 277 277 278 279 279 280 280 281 282 283 284 285 285 286 285 285 285 285 286 288 289 291 294 302 312 322 334 346 351 352 348 343 337 330 320 315 313 307 302 298 292 288 286 283 280 278 277 275 274 273 273 274 274 273 272 271 271 273 273 271 271 271 271 271 271 272 272 271 271 272
258 260 261 261 262 263 264 265 267 267 269 270 271 271 272 273 274 275 275 276 277 277 278 279 280 281 282 283 283 283 283 282 282 281 282 282 284 287 294 308 329 356 10 15 18 17 13 6 356 348 343 335 324 318 312 304 298 294 290 285 283 281 279 277 275 273 272 272 272 274 276 275 273 270 269 271 271 270 269 270 271 271 271 271 271 271 271 272
259 260 261 262 262 263 264 265 266 267 268 268 269 270 271 271 272 272 273 274 275 277 278 279 280 280 280 280 280 279 278 276 274 273 274 276 284 312 1 28 35 36 31 22 14 4 356 347 337 331 326 320 311 306 301 295 291 289 286 283 280 277 276 277 277 275 274 273 272 274 277 278 276 273 269 268 269 270 270 270 271 271 271 271 271 272 273 273
260 260 261 261 262 262 263 264 265 265 266 266 267 267 268 269 270 271 272 273 274 275 276 277 278 277 277 275 273 271 267 265 262 262 264 345 54 58 53 46 38 29 11 353 343 335 330 325 321 316 311 308 302 298 295 291 289 287 286 285 283 279 274 275 278 278 276 274 273 273 275 279 281 279 275 272 271 271 272 271 271 271 272 273 273 273 274 274
260 260 260 260 261 261 261 261 262 262 262 263 264 265 266 266 267 268 269 270 271 271 273 273 271 268 263 259 253 243 232 213 156 113 98 86 71 59 40 17 359 344 332 325 322 319 318 315 311 307 304 300 297 295 293 291 289 287 287 286 286 285 281 277 278 279 279 278 277 276 275 276 279 281 281 279 277 275 274 274 273 273 273 274 274 275 275 275
258 258 258 258 257 257 257 257 256 256 257 257 257 258 258 258 259 260 260 260 260 259 257 253 244 229 211 189 172 158 141 126 120 114 101 79 22 350 330 324 321 319 317 315 314 313 312 311 308 305 302 299 296 295 293 292 291 290 289 288 287 287 286 284 281 281 281 281 280 279 278 277 277 279 281 281 281 280 279 278 277 276 276 276 276 276 276 277
250 250 250 250 249 248 247 246 245 244 244 244 244 244 244 244 243 241 237 230 218 204 188 172 165 159 148 140 138 135 130 127 126 118 15 311 311 312 312 315 318 319 318 317 316 313 310 308 305 302 300 297 296 294 292 290 289 288 286 285 284 284 283 284 282 280 279 280 280 279 278 278 278 279 280 280 280 281 281 281 281 280 279 278 278 278 278 278
234 233 232 231 231 230 230 230 229 228 226 224 221 218 213 203 192 182 174 163 149 145 138 129 128 127 122 123 126 121 114 86 344 327 321 321 322 322 323 323 322 320 317 314 311 306 302 299 296 293 291 290 288 287 286 285 284 284 282 281 281 280 279 280 281 281 280 279 279 279 278 278 278 278 278 278 278 278 278 278 278 279 279 278 278 278 278 278
206 203 200 197 194 193 192 191 189 187 183 176 168 159 149 141 136 133 130 126 123 122 120 118 118 114 112 116 102 64 5 345 339 332 327 327 325 321 320 317 313 310 306 302 299 295 292 290 288 286 285 285 284 283 282 282 282 282 282 282 282 282 281 279 279 280 281 282 281 281 280 280 279 278 278 277 277 276 276 276 276 276 276 276 277 277 277 277
168 164 159 154 148 141 135 130 128 126 125 125 126 124 122 120 119 116 112 111 113 113 112 112 108 94 84 54 23 6 348 339 332 326 321 319 317 313 310 306 302 300 297 294 292 290 289 288 287 287 286 285 284 283 282 281 281 281 281 281 281 282 282 281 280 279 279 281 282 283 282 281 281 280 279 278 278 278 277 276 276 276 276 276 276 276 277 277
140 137 133 129 126 122 117 115 112 111 111 110 110 110 109 107 107 107 105 104 103 100 93 85 75 60 37 11 357 344 334 328 321 317 313 310 307 304 302 300 297 295 294 292 291 290 290 289 288 288 287 286 285 284 283 282 281 281 280 280 280 280 281 282 281 281 280 280 282 283 283 283 282 281 280 279 278 278 278 278 278 277 277 277 277 277 277 278
121 119 117 117 117 115 113 112 110 108 106 104 104 103 101 99 98 95 91 88 83 75 64 53 39 18 358 344 335 327 320 315 311 308 306 303 301 299 298 296 295 295 294 292 291 291 290 289 289 288 287 286 286 285 284 284 284 283 283 283 282 282 282 283 283 282 281 281 281 282 283 283 282 281 280 278 277 277 277 277 277 278 278 278 278 279 279 279
109 108 108 107 107 106 105 105 104 104 103 100 99 97 94 92 87 80 73 64 57 48 33 17 1 348 337 327 319 314 309 305 303 301 301 300 299 298 298 297 297 296 296 295 294 294 293 292 291 290 289 288 288 287 286 286 286 286 286 286 285 285 284 285 286 286 284 283 283 283 283 284 283 282 280 279 278 277 277 277 278 278 279 279 279 280 280 280
102 101 100 99 99 99 98 98 98 97 95 92 89 85 82 79 74 69 61 48 35 19 3 345 332 324 322 318 312 308 305 304 303 302 302 301 300 299 298 298 298 298 297 297 296 295 294 293 292 292 291 291 291 291 290 290 289 289 289 288 288 287 286 286 287 288 288 287 286 285 285 285 285 284 282 281 280 279 279 280 280 280 280 280 280 281 281 281
96 95 95 95 94 93 92 92 91 89 87 85 82 79 76 71 66 60 47 28 360 342 333 326 321 316 314 313 310 309 308 307 306 304 303 301 301 300 298 298 298 298 298 298 298 297 297 296 295 295 295 294 294 294 294 294 294 293 292 292 291 290 289 288 288 288 288 288 288 286 286 286 285 284 283 282 282 282 283 283 283 283 282 282 282 282 282 281
94 93 93 91 90 89 89 89 88 86 85 84 82 79 76 69 55 32 8 344 324 323 324 320 318 316 314 311 309 309 308 307 306 306 305 303 303 302 302 301 301 300 300 300 300 299 299 298 298 297 297 296 296 296 296 296 296 296 295 294 293 293 292 291 290 289 289 289 288 287 286 285 285 284 283 283 285 286 286 286 285 285 284 283 282 282 281 280
94 93 91 90 90 89 89 88 87 86 85 85 81 70 55 29 5 350 341 331 322 320 321 320 317 316 315 313 313 312 310 308 307 307 307 306 306 306 305 305 305 304 303 303 302 301 301 301 300 300 299 299 298 298 297 296 296 295 294 293 293 293 293 292 292 291 291 290 289 288 287 286 285 284 283 284 286 287 287 286 285 284 283 282 282 281 280 280
92 91 91 91 91 90 89 88 87 85 78 67 50 24 6 353 344 336 329 326 323 320 319 317 316 315 314 314 314 313 312 311 310 309 308 308 308 308 307 307 307 306 306 305 304 303 302 302 300 300 299 298 298 297 297 297 297 296 295 295 295 294 294 293 293 293 293 292 291 289 289 288 287 286 285 286 286 286 285 285 284 283 282 282 281 281 281 281
92 92 93 93 94 93 89 84 75 61 41 19 2 351 345 339 334 330 327 325 323 320 319 317 316 315 314 314 314 313 313 312 312 311 310 309 309 309 308 308 308 307 306 305 304 303 302 301 301 301 301 301 301 301 301 300 300 299 298 297 297 296 296 295 295 295 295 294 293 292 291 290 289 289 289 289 288 287 287 286 285 285 284 284 284 284 283 283
98 99 100 99 96 90 75 55 31 13 360 351 345 339 336 332 330 328 326 325 323 322 321 321 319 318 318 317 316 314 313 312 311 311 310 310 310 310 309 308 307 305 304 304 304 303 304 303 304 304 304 304 304 304 303 302 301 300 300 300 299 299 298 298 298 298 298 297 296 295 294 293 292 292 292 292 291 290 289 288 287 286 286 285 284 284 283 282
108 106 104 98 82 52 23 5 355 350 345 342 338 333 332 331 329 328 326 325 324 323 322 321 320 320 318 317 315 314 313 313 312 312 311 311 310 310 309 308 307 307 307 307 307 307 307 307 307 307 306 306 306 306 305 304 304 303 302 302 302 301 301 301 301 300 300 299 298 297 297 296 295 295 295 294 294 293 292 290 289 288 287 287 286 285 284 283
97 86 73 47 21 5 356 351 348 344 340 337 335 334 334 332 329 328 327 325 324 323 323 322 320 318 317 316 315 315 315 315 314 314 314 314 314 314 314 314 314 313 313 313 313 312 311 310 310 309 309 309 309 309 308 307 307 306 305 304 303 302 301 301 301 300 300 299 298 297 296 297 296 296 297 296 296 295 295 294 292 291 291 290 289 289 288 287
48 33 19 9 1 354 351 348 344 340 337 337 336 335 333 331 329 328 325 324 324 323 322 320 319 318 317 317 317 317 317 316 316 316 316 316 316 316 315 314 313 313 313 314 314 313 313 313 312 312 311 311 310 310 309 308 307 306 304 303 302 301 301 300 299 298 297 295 293 293 294 295 294 294 295 294 294 294 294 294 294 293 293 292 291 291 290 290
16 8 2 356 351 349 347 344 341 339 338 336 334 332 331 329 326 324 324 324 324 322 321 320 319 319 319 319 319 318 318 318 317 317 317 316 316 315 314 314 314 314 315 315 315 315 315 314 314 314 312 311 309 308 307 304 302 301 300 300 300 300 299 299 297 295 292 290 287 286 289 290 290 291 292 291 291 291 291 292 292 293 293 293 293 292 292 292
2 356 351 348 346 345 343 341 340 339 335 333 332 331 328 324 322 323 325 325 323 322 321 321 321 321 321 321 321 321 320 319 319 318 318 317 317 318 318 319 319 319 319 318 318 318 316 313 312 310 307 306 305 305 305 303 300 299 299 298 298 298 298 298 297 295 293 290 286 282 283 284 285 287 288 288 288 288 288 289 290 291 291 292 292 292 293 293
351 347 345 344 343 340 340 339 336 334 332 332 330 327 324 324 325 326 325 323 323 323 323 323 323 323 323 323 322 321 321 320 319 319 319 319 321 322 322 322 322 321 320 319 319 318 315 311 310 308 306 305 306 307 306 305 303 301 300 300 300 299 299 298 298 297 295 294 292 287 285 283 283 285 285 284 284 285 285 286 287 288 289 290 291 292 294 295
345 344 343 341 339 338 337 335 333 333 332 330 327 327 328 328 327 325 324 324 325 325 325 325 325 325 324 323 323 322 322 321 321 322 323 324 325 325 325 325 323 321 319 318 316 315 314 312 311 311 312 311 312 313 312 310 307 306 306 305 304 303 302 301 299 298 296 296 295 291 289 287 286 286 285 283 283 283 284 285 285 287 288 289 290 291 293 294
343 341 339 338 337 336 334 333 333 331 328 327 329 330 329 326 325 326 326 327 328 328 328 327 326 325 325 324 324 324 324 324 325 326 327 328 328 327 326 324 321 318 316 315 314 313 314 317 317 316 316 316 315 316 317 315 314 314 313 311 309 307 305 303 301 299 297 296 296 294 292 291 290 289 287 285 283 283 282 282 283 284 285 287 288 289 291 292
339 337 336 336 334 333 332 331 329 328 329 331 331 328 326 326 328 329 330 331 330 329 328 327 326 326 326 326 326 326 327 328 329 329 329 328 327 325 323 320 317 315 314 314 315 314 315 319 321 319 318 318 318 319 320 320 320 319 318 316 313 310 307 305 304 303 301 301 300 299 297 297 296 294 292 290 288 286 284 283 282 282 282 284 285 286 287 289
334 334 333 333 332 331 330 329 330 333 334 331 327 326 329 331 332 332 332 331 330 328 328 327 327 327 327 328 328 329 330 330 329 328 327 325 324 323 322 321 319 318 318 318 318 319 318 321 324 324 323 322 321 321 321 321 320 320 319 318 315 313 311 309 310 308 306 305 305 303 301 301 300 298 297 296 295 294 293 291 289 287 287 286 286 286 286 286
332 332 332 332 331 331 330 331 334 333 329 327 329 332 334 333 333 333 331 330 328 328 328 328 328 329 330 330 331 331 330 329 327 326 325 324 325 325 325 324 324 324 324 324 324 325 325 325 328 328 327 326 324 323 323 323 323 321 320 318 316 315 314 312 312 311 309 307 305 302 301 301 300 300 299 300 300 301 301 300 299 298 296 294 293 291 290 289
332 332 332 331 331 330 331 332 332 330 330 333 335 335 334 334 333 331 330 329 329 330 330 330 331 332 332 331 331 330 328 327 327 326 327 327 328 328 327 327 329 329 330 331 331 331 330 330 331 330 329 327 326 327 328 327 327 325 323 322 320 319 317 314 311 308 305 303 301 299 300 301 301 301 302 303 304 304 305 305 305 304 302 300 299 298 297 297
331 331 330 330 330 330 331 332 333 334 336 336 336 335 334 333 331 330 331 331 331 331 332 333 333 333 332 331 329 329 329 330 330 330 331 331 332 333 333 333 334 335 336 336 336 335 334 334 334 333 332 331 330 331 330 329 328 326 324 323 320 317 313 309 306 304 302 302 301 301 302 304 305 305 306 306 307 308 309 309 308 308 306 305 304 304 304 304
330 329 328 329 330 331 333 335 337 338 337 336 335 335 333 332 332 332 332 332 333 334 334 334 333 333 332 331 331 333 334 335 335 336 336 337 338 339 339 340 341 342 342 341 340 339 337 335 334 333 332 331 331 331 330 329 328 325 322 318 315 312 310 309 309 309 309 309 308 306 306 308 308 308 309 310 311 311 311 311 310 309 307 306 306 306 306 305
328 327 328 330 332 335 337 338 338 337 337 336 335 333 333 333 333 333 333 334 335 335 335 334 334 333 333 334 336 337 338 339 340 341 342 343 344 344 345 346 346 346 345 344 343 342 340 338 337 335 331 327 326 325 322 321 323 322 321 319 318 317 316 315 314 313 311 311 310 308 308 309 310 310 311 312 312 311 311 309 308 307 306 306 306 306 305 301
327 328 331 333 336 338 338 338 338 337 336 335 334 334 334 334 334 335 336 336 336 336 336 335 335 336 338 340 341 342 343 344 345 346 348 349 349 350 350 350 349 349 347 346 346 346 344 342 341 340 336 332 330 329 327 325 325 325 325 325 324 322 321 319 317 314 312 311 311 310 310 311 312 311 311 311 311 310 309 308 307 306 306 306 307 306 302 298
330 333 336 338 338 338 338 338 338 337 335 335 335 335 335 336 337 338 338 338 338 337 338 339 341 344 346 347 348 349 349 350 351 351 352 352 352 352 351 351 350 349 348 348 348 348 348 347 345 344 340 337 336 336 334 333 333 331 329 327 326 326 325 324 321 318 315 313 313 313 313 313 313 312 313 313 312 311 310 309 308 307 307 309 309 307 304 301
336 338 339 339 338 338 339 338 337 336 335 336 336 337 338 339 340 340 340 340 340 341 343 346 349 351 352 353 354 354 355 355 355 355 354 354 354 353 352 351 350 349 349 349 350 350 350 350 349 347 343 339 338 337 337 336 335 333 331 329 329 328 328 326 323 320 317 316 316 316 315 315 315 316 316 316 314 313 313 313 311 311 313 314 312 308 307 306
338 338 338 339 339 339 338 337 336 336 336 337 338 339 341 342 342 342 342 342 344 347 351 353 355 355 355 356 357 357 358 358 358 357 356 355 354 353 352 351 350 350 350 351 352 352 353 351 351 351 346 341 339 339 338 337 336 334 333 332 332 330 329 327 325 322 320 318 317 318 318 317 317 318 319 318 316 316 317 316 314 315 317 315 311 309 309 307
338 339 339 339 339 338 337 337 337 337 338 340 341 343 344 344 344 343 344 347 351 354 356 357 357 357 358 359 359 359 359 359 358 358 356 355 354 353 352 351 350 351 351 352 353 354 354 353 352 352 350 345 343 342 339 337 337 336 335 334 332 330 331 330 327 323 319 318 318 319 319 319 319 319 321 320 318 319 319 316 316 320 319 315 312 311 310 307
340 340 340 339 338 338 337 337 338 339 341 343 344 345 346 345 345 347 350 354 357 358 359 359 359 359 0 1 1 1 360 359 358 357 356 355 354 353 352 352 352 353 353 354 354 354 354 354 353 353 352 349 346 344 341 338 337 336 335 333 331 330 331 330 326 321 318 318 320 320 319 320 321 321 322 321 320 319 317 315 318 323 320 315 315 314 312 309
340 340 339 339 338 337 338 338 340 341 344 346 347 347 347 347 349 353 356 359 0 1 1 1 1 2 3 3 2 1 360 358 357 356 355 355 354 354 354 353 353 355 355 355 355 355 355 355 354 353 353 350 347 346 343 340 338 337 335 333 330 329 329 329 326 322 319 320 321 322 323 324 324 323 322 322 321 320 317 316 322 325 320 318 318 316 313 311
340 339 339 338 338 338 339 340 342 345 347 349 349 348 348 351 355 358 0 2 3 3 3 3 4 4 4 3 2 0 359 358 357 355 355 355 355 355 355 354 354 356 356 356 356 356 356 356 355 353 353 351 349 347 345 343 341 338 336 333 330 328 327 329 329 324 321 322 324 325 326 326 324 322 322 323 323 320 317 318 323 324 320 319 319 317 315 314